Location: ??
(35.5138°N, 139.6953°E)
Time: 14:37:24
(UTC+00:00)

SAR-Lupe-2 - Pass Details

Date: 07 June 2020
Orbit: 481 x 485 km, 98.1° (Epoch: 05 July)

Event Time Altitude Azimuth Distance (km) Brightness Sun altitude
Rises 11:22:19 0° 19° (NNE) 2,547 7.6 -15.2°
Reaches altitude 10° 11:24:27 10° 26° (NNE) 1,663 6.5 -15.5°
Maximum altitude 11:27:52 44° 100° (E) 678 3.9 -16.0°
Enters shadow 11:28:45 36° 140° (SE) 782 4.0 -16.1°
